809  
ASUS41 KAKQ 240315  
RWRAKQ  
 
REGIONAL WEATHER ROUNDUP  
NATIONAL WEATHER SERVICE WAKEFIELD VA  
1100 PM EDT SAT SEP 23 2017  
 
NOTE: "FAIR" INDICATES FEW OR NO CLOUDS BELOW 12,000 FEET WITH NO  
SIGNIFICANT WEATHER AND/OR S TO VISIBILITY
. * = DENOTES  
STATION MAY NOT REPORT PRECIPITATION (E.G., RAIN,SNOW,ETC.),
 
THUNDER OR FOG.  
 
VAZ042-051-052>054-056-240400-  
NORTHERN VIRGINIA  
 
CITY SKY/WX TMP DP RH WIND PRES REMARKS
 
WASH NATIONAL PTCLDY 74 63 68 CALM 30.08S  
DULLES CLEAR 63 62 97 CALM 30.09S  
FORT BELVOIR CLEAR 63 61 94 CALM 30.08R  
QUANTICO CLEAR 69 67 93 NW7 30.09R  
FREDERICKSBRG* CLEAR 67 67 100 CALM 30.08R  
STAFFORD* CLEAR 62 62 100 CALM 30.13R  
WARRENTON CLEAR 58 54 88 CALM 30.10R  
CULPEPER* CLEAR 63 61 94 CALM 30.11R  
MANASSAS* CLEAR 62 61 96 CALM 30.09S  
LEESBURG* CLEAR 66 64 94 CALM 30.10S  
WINCHESTER CLEAR 59 55 88 CALM 30.11S  
FRONT ROYAL* CLEAR 63 57 82 CALM 30.11R  
LURAY* CLEAR 61 54 77 CALM 30.14R  

 
 
VAZ048-049-060>072-079>083-240400-  
CENTRAL AND SOUTH CENTRAL VIRGINIA  
 
CITY SKY/WX TMP DP RH WIND PRES REMARKS
 
RICHMOND CLEAR 69 66 90 CALM 30.08S  
CHESTERFIELD* NOT AVBL  
PETERSBURG* CLEAR 65 65 100 CALM 30.09S  
HANOVER CLEAR 67 65 93 CALM 30.10R  
TAPPAHANNOCK* CLEAR N/A N/A N/A CALM 30.09R  
QUINTON* FAIR 67 67 100 CALM 30.08S  
CHARLOTTSVILLE CLEAR 66 63 90 CALM 30.11S  
GORDONSVILLE* CLEAR 61 60 97 CALM 30.10S  
ORANGE* CLEAR 61 59 94 CALM 30.10S  
LOUISA* CLEAR 61 59 94 CALM 30.10S  
BUMPASS* FAIR 64 64 100 CALM 30.10R  
FARMVILLE* CLEAR 64 64 100 CALM 30.09R  
CREWE* FAIR 64 64 100 CALM 30.10R  
FORT PICKETT* FAIR 69 69 100 NE5 30.10R  
CHASE CITY* FAIR 66 66 100 CALM 30.09S  
CLARKSVILLE* FAIR 70 63 78 N3 30.08S  
SOUTH HILL* PTCLDY 67 65 91 N5 30.14S  
LAWRENCEVILLE* FAIR 69 65 86 N3 30.08S  
EMPORIA* PTCLDY 66 64 94 CALM 30.09S  

 
 
VAZ088>098-240400-  
SOUTHEAST VIRGINIA  
 
CITY SKY/WX TMP DP RH WIND PRES REMARKS
 
NORFOLK CLEAR 72 68 87 CALM 30.07S  
VIRGINIA BEACH MOCLDY 69 65 86 CALM 30.06S  
NORFOLK NAVAL PTCLDY 70 66 87 CALM 30.08S  
WEST POINT* CLEAR 64 64 100 CALM 30.10R  
SALUDA* FAIR 68 68 99 CALM 30.07S  
NEWPORT NEWS CLEAR 68 67 96 CALM 30.08R  
LANGLEY AFB CLEAR 71 68 92 CALM 30.07S  
FORT EUSTIS CLEAR 71 67 87 CALM 30.06R  
WILLIAMSBURG* CLEAR 72 70 94 CALM 30.09R  
HR EXEC AP* FAIR 64 64 100 CALM 30.08S  
FRANKLIN* CLEAR 66 65 96 CALM 30.08S  
US460-WAKEFLD CLEAR 67 67 100 CALM 30.08R  

 
 
VAZ020-022-025-037-045-240400-  
WEST CENTRAL AND SOUTHWEST VIRGINIA  
 
CITY SKY/WX TMP DP RH WIND PRES REMARKS
 
STAUNTON* CLEAR 58 55 89 CALM 30.17R  
WAYNESBORO* CLEAR 60 59 99 CALM 30.15S  
HOT SPRINGS VA CLEAR 66 45 46 CALM 30.27R  
LYNCHBURG CLEAR 64 58 80 CALM 30.13R  
DANVILLE PTCLDY 64 61 90 CALM 30.10R  
SOUTH BOSTON* FAIR 63 62 95 CALM 30.09S  
MARTINSVILLE PTCLDY 61 59 96 CALM 30.15R  
ROANOKE CLEAR 69 59 70 S3 30.16R  
BLACKSBURG CLEAR 62 55 78 CALM 30.21R  
DUBLIN* CLEAR 63 56 77 CALM 30.19S  
MARION* CLEAR 62 53 73 CALM 30.23R  
HILLSVILLE* CLEAR 65 52 63 CALM 30.19R  
RICHLANDS* FAIR 69 52 55 E3 30.19S  
WISE* CLEAR 68 61 77 CALM 30.19R  
ABINGDON* CLEAR 68 59 73 E6 30.15S  

 
 
MDZ021>025-VAZ099-100-240400-  
SOUTHERN MARYLAND AND THE DELMARVA PENINSULA  
 
CITY SKY/WX TMP DP RH WIND PRES REMARKS
 
PATUXENT RIVER CLEAR 64 64 100 W3 30.06S  
BAY BRIDGE APT NOT AVBL  
LEONARDTOWN CLEAR 66 64 94 CALM 30.09S  
DOVER CLEAR 70 61 73 W3 30.04F  
GEORGETOWN CLEAR 69 66 90 CALM 30.06S  
EASTON CLEAR 68 65 89 CALM 30.10  
CAMBRIDGE CLEAR 66 64 94 CALM 30.06S  
SALISBURY CLEAR 68 67 96 CALM 30.06S  
OCEAN CITY CLEAR 66 66 100 CALM 30.07R  
WALLOPS ISLAND CLEAR 68 68 100 CALM 30.07S  
ACCOMACK* PTCLDY 67 66 97 CALM 30.07S  

 
 
NCZ012>017-030>032-240400-  
NORTH CENTRAL AND EASTERN NORTH CAROLINA  
 
CITY SKY/WX TMP DP RH WIND PRES REMARKS
 
ROANOKE RAPIDS FAIR 64 64 100 CALM 30.06F  
RALEIGH CLOUDY 69 63 81 CALM 30.07S  
ELIZABETH CITY PTCLDY 72 70 93 NE8 30.07R  
AHOSKIE* PTCLDY 67 67 99 CALM 30.07S  
EDENTON* PTCLDY 72 68 89 CALM 30.06S  
CURRITUCK* PTCLDY 72 68 88 CALM 30.07S  
KILL DEVIL HLS PTCLDY 69 64 84 CALM 30.04F  
MANTEO PTCLDY 71 66 86 NE9 30.05F  
CAPE HATTERAS CLEAR 72 68 87 NE7 30.04R  
TARBORO* NOT AVBL  
GOLDSBORO PTCLDY 72 70 95 E6 30.03S  
WASHINGTON CLEAR 72 67 86 CALM 30.05S  
GREENVILLE PTCLDY 72 68 88 CALM 30.07S  
NEW BERN PTCLDY 73 69 87 E5 30.05S  
WILMINGTON CLEAR 71 69 93 NE3 30.02S  

 
 
VAZ048-240400-  
ELSEWHERE  
 
CITY SKY/WX TMP DP RH WIND PRES REMARKS
 
HARRISBURG PA CLEAR 67 62 84 CALM 30.08S  
BALTIMORE CLEAR 64 62 93 W3 30.07S  
ANNAPOLIS CLEAR 72 71 97 CALM 30.07S  
ANDREWS AFB CLEAR 64 63 94 CALM 30.07S  
PHILADELPHIA CLEAR 73 65 75 CALM 30.05S  
HENDERSON NC CLOUDY 65 58 77 CALM 30.08F  
GREENSBORO PTCLDY 72 61 68 NE3 30.09S  
ROCKY MOUNT PTCLDY 69 66 90 CALM 30.06S  

 
 
VAZ100-240400-  
MARINE  
 
STATION/POSITION TIME TEMP WIND PRES WAVE SWELL
 
AIR SEA DIR/SP/G HT/PER HT/PER  
(UTC) (F) (DEG/KT/KT) (MB) (FT/S) (FT/S)  
BRANDYWINE LGT 0242 77 240/ 2/ 4 1018.1R  
CAPE MAY NJ 0248 73 75 200/ 4/ 5 1017.2R  
LEWES DE 0242 72 74 210/ 5/ 6 1017.5S  
15NM E FENWICK I 0250 73 72 240/ 6/ 8 1018.1R 5/ 8 5/ 8  
OCEAN-CITY-INLET 0242 72 74 260/ 2/ 2 1018.3S  
WACHAPREAGUE VA 0242 71 78 270/ 2/ 2 1018.2R  
THOMAS POINT MD 0300 74 76 300/ 4/ 4 N/A  
GOOSES REEF MD 0300 76 76 280/ 4/ 4 1018.7 0  
COVE POINT MD 0242 76 290/ 3/ 4 1018.7R  
SOLOMONS ISLAND 0242 73 76 CALM / 3 1017.8R  
BISHOPS HEAD MD 0242 75 78 130/ 2/ 3 1018.2R  
PINEY POINT MD 0242 310/ 2/ 2 N/A  
POTOMAC MD 0300 77 76 320/ 4/ 4 1017.5 0  
CAMBRIDGE MD 0242 71 77 1018.8S  
LEWISETTA VA 0242 74 78 280/ 3/ 3 1018.1S  
RAPPAHANNOCK LGT 0242 170/ 5/ 6 1018.9R  
STINGRAY PT 0300 75 76 230/ 6/ 8 1018.7 1  
YORK RVR RNG VA 0242 75 210/ 4/ 5 1018.8R  
YORKTOWN VA 0242 73 77 180/ 3/ 5 1018.0R  
JAMESTOWN VA 0300 79 100/ 2/ 4 N/A 0  
DOMINION TERM VA 0242 75 100/ 3/ 7 1018.5S  
KIPTOPEKE VA 0242 76 140/ 2/ 3 N/A  
CHES BAY BRIDGE 0242 74 76 160/ 5/ 6 1018.2S  
CAPE HENRY VA 0242 73 130/ 3/ 3 N/A  
WILLOUBY STN VA 0242 74 150/ 5/ 5 1018.3S  
S CRANEY ISL VA 0242 74 150/ 4/ 5 1018.1S  
CAPE HENRY BUOY 0300 75 N/A 4/13 3/13  
1ST LANDING BUOY 0300 74 76 1018.1 2/ 5  
64NM E OF VA BCH 0250 69 70 40/ 4/ 6 1018.2F 9/12 10/12  
DUCK PIER NC 0242 73 77 40/ 9/ 10 1017.5F  
44100 DUCK FRF 0235 75 N/A 6/10 3/13  
44056 DUCK FRF 0300 76 N/A 5/15 3/15  
OREGON INLET NC 0242 72 78 10/ 9/ 12 1017.2F  
HATTERAS NC 0242 73 79 50/ 8/ 12 1017.1R  
DIAMOND SHLS NC 0250 73 75 40/ 16/ 17 1016.7R 7/11 7/11  
CAPE LOOKOUT NC 0300 76 50/ 16/ 17 1016.7S  

 
 
 
CLICK HERE TO GO TO PREVIOUS BULLETINS.

The Nexlab VA Page
The Nexlab NC Page
The Nexlab MD Page Main Text Page